Regional Weather Roundup
Issued by NWS Green Bay, WI

Home | Current Version | Previous Version | Text Only | Print | Product List | Glossary On
Versions: 1 2 3 4 5 6 7 8 9 10 11 12 13 14 15 16 17 18 19 20 21 22 23 24 25 26 27 28 29 30 31 32 33 34 35 36 37 38 39 40 41 42 43 44 45 46 47 48 49 50
000
ASUS43 KGRB 302011
RWRGRB

NORTH-CENTRAL AND NORTHEAST WISCONSIN REGIONAL WEATHER ROUNDUP
NATIONAL WEATHER SERVICE GREEN BAY WI
300 PM CDT MON MAY 30 2016

WIZ005-009-010>012-018-019-302100-
NORTH CENTRAL WISCONSIN

CITY           SKY/WX    TMP DP  RH WIND       PRES   REMARKS
IRONWOOD       SUNNY     75  45  33 NW9       29.95S
MANITOWISH WTR NOT AVBL
ARBOR VITAE    SUNNY     77  44  31 W8G16     30.00S
EAGLE RIVER      N/A     76  40  27 NW15      30.00S
LAND O LAKES   MOSUNNY   75  42  30 NW8       30.01S
RHINELANDER    PTSUNNY   78  45  30 W12       30.01F
PHILLIPS       MOSUNNY   76  49  38 NW3       29.99F
ANTIGO         MOSUNNY   75  52  43 NW10G16   30.01F
TOMAHAWK       CLOUDY    76  46  34 W10G18    30.01S
MERRILL        MOSUNNY  N/A N/A N/A NW8       30.00F
$$

WIZ013-073-302100-
NORTHEAST WISCONSIN

CITY           SKY/WX    TMP DP  RH WIND       PRES   REMARKS
IRON MOUNTAIN  MOSUNNY   78  45  30 NW10      29.96F
MARINETTE      PTSUNNY   78  48  34 VRB7      29.97S
OCONTO         MOSUNNY   80  50  34 W8        29.97S
$$

WIZ017-030-035>037-045-302100-
CENTRAL WISCONSIN

CITY           SKY/WX    TMP DP  RH WIND       PRES   REMARKS
MEDFORD        SUNNY     75  51  43 W10G16    30.01F
WAUSAU         SUNNY     80  50  34 W13       29.99F
MOSINEE        NOT AVBL
MARSHFIELD     SUNNY     79  50  36 W8        30.00F
WISC RAPIDS    SUNNY     81  44  27 NW8       30.00F
STEVENS POINT  SUNNY     76  46  34 NW8       30.01F
WAUPACA        SUNNY     82  43  25 W3        29.99F
SHAWANO        PTSUNNY   82  47  29 W9        29.99S
CLINTONVILLE   SUNNY     79  45  29 NW10      29.99F
WAUTOMA        SUNNY    N/A N/A N/A NW9       29.99F
$$

WIZ038-039-048-051-302100-
FOX VALLEY

CITY           SKY/WX    TMP DP  RH WIND       PRES   REMARKS
NWS GREEN BAY  MOSUNNY   79  50  36 W10       29.98F
APPLETON       MOSUNNY   79  45  29 W8        29.99F
OSHKOSH        SUNNY     79  50  36 CALM      29.99F
FOND DU LAC    SUNNY     79  53  40 NW5       29.99F
$$

WIZ022-050-052-302100-
EAST CENTRAL WISCONSIN

CITY           SKY/WX    TMP DP  RH WIND       PRES   REMARKS
EPHRAIM        FAIR      76  49  39 SW5       29.97S
STURGEON BAY   NOT AVBL
MANITOWOC      MOSUNNY   79  49  34 W8        29.99F
SHEBOYGAN      SUNNY     78  49  35 NW8       29.99F HAZE
$$

LMZ563-521-522-541>543-302100-
LAKESHORE

STATION/POSITION TIME  TEMP    WIND        PRES    VSBY  WAVE
                       AIR SEA DIR/SP/G                  HT/PER
                 (UTC) (F)     (DEG/KT/KT) (MB)    (MI)  (FT/S)
SHEBOYGAN LKSHOR 2000   64     170/ 12/ 12 1015.8F
KEWAUNEE LKSHORE 1900          140/  3/  7 1015.4F
NORTHPORT PIER   2000          130/  9/ 25 1014.6F
N MID LAKE BUOY  1950   52 50  190/  8/ 10 1014.8F         1
CHAMBERS ISLAND  1900   73     160/  6/ 11 1014.9
MENOMINEE LKSHOR 1900   77     240/  8/ 10 1013.9F
$$




USA.gov is the U.S. government's official web portal to all federal, state and local government web resources and services.